CW0652 Weather Reports


time (UTC)temp
C
wind
direction
speed
KPH
gust
KPH
rain 1hr
cm
rain 24hr
cm
rain mn
cm
humidity
%
barometer
mb
20260510120132 9 60 3.2 3.2 0.00 0.00 0.00 98 1015.4
20260510115628 8 46 0.0 0.0 0.00 0.00 0.00 98 1015.3
20260510115126 8 62 0.0 0.0 0.00 0.00 0.00 98 1015.2
20260510114621 7 65 0.0 0.0 0.00 0.00 0.00 97 1015.2
20260510114118 7 55 0.0 0.0 0.00 0.00 0.00 97 1015.1
20260510113613 7 56 0.0 0.0 0.00 0.00 0.00 97 1015.1
20260510113111 7 53 0.0 0.0 0.00 0.00 0.00 97 1015.0
20260510112607 7 49 0.0 0.0 0.00 0.00 0.00 97 1014.9
20260510112104 6 52 0.0 0.0 0.00 0.00 0.00 97 1014.7
20260510111600 6 53 0.0 0.0 0.00 0.00 0.00 97 1014.6
20260510111056 6 51 0.0 0.0 0.00 0.00 0.00 97 1014.8
20260510110552 6 44 0.0 0.0 0.00 0.00 0.00 97 1014.8
20260510110049 6 48 0.0 0.0 0.00 0.00 0.00 97 1014.7
20260510105544 6 42 0.0 0.0 0.00 0.00 0.00 97 1014.9
20260510105039 6 38 0.0 0.0 0.00 0.00 0.00 97 1014.8
20260510104536 6 38 0.0 0.0 0.00 0.00 0.00 97 1014.7
20260510104032 6 38 0.0 0.0 0.00 0.00 0.00 97 1014.4
20260510103530 6 38 0.0 0.0 0.00 0.00 0.00 97 1014.4
20260510103026 6 38 0.0 0.0 0.00 0.00 0.00 97 1014.4
20260510102522 6 38 0.0 0.0 0.00 0.00 0.00 97 1014.1
20260510102018 6 50 0.0 0.0 0.00 0.00 0.00 97 1014.0
20260510101515 6 50 0.0 0.0 0.00 0.00 0.00 97 1014.0
20260510101014 6 50 0.0 0.0 0.00 0.00 0.00 97 1013.9
20260510100510 6 50 0.0 0.0 0.00 0.00 0.00 97 1013.9
20260510100007 6 50 0.0 0.0 0.00 0.00 0.00 97 1013.9
20260510095502 6 50 0.0 0.0 0.00 0.00 0.00 97 1013.8
20260510095002 6 51 0.0 0.0 0.00 0.00 0.00 97 1013.8
20260510094457 6 51 0.0 0.0 0.00 0.00 0.00 97 1013.7
20260510093953 6 50 0.0 0.0 0.00 0.00 0.00 97 1013.7
20260510093449 6 51 0.0 0.0 0.00 0.00 0.00 97 1013.6
20260510092945 6 51 0.0 0.0 0.00 0.00 0.00 97 1013.7
20260510092443 6 51 0.0 0.0 0.00 0.00 0.00 97 1013.7
20260510091942 6 50 0.0 0.0 0.00 0.00 0.00 97 1013.8
20260510091440 6 51 0.0 0.0 0.00 0.00 0.00 97 1013.7
20260510090936 6 51 0.0 0.0 0.00 0.00 0.00 97 1013.6
20260510090433 6 51 0.0 0.0 0.00 0.00 0.00 97 1013.5
20260510085928 6 51 0.0 0.0 0.00 0.00 0.00 97 1013.5
20260510085424 6 50 0.0 0.0 0.00 0.00 0.00 97 1013.5
20260510084919 6 51 0.0 0.0 0.00 0.00 0.00 97 1013.4
20260510084417 6 51 0.0 0.0 0.00 0.00 0.00 97 1013.3
20260510083913 6 50 0.0 0.0 0.00 0.00 0.00 97 1013.4
20260510083409 6 50 0.0 0.0 0.00 0.00 0.00 97 1013.4
20260510082905 6 50 0.0 0.0 0.00 0.00 0.00 97 1013.4
20260510082403 6 50 0.0 0.0 0.00 0.00 0.00 97 1013.3
20260510081901 6 50 0.0 0.0 0.00 0.00 0.00 97 1013.4
20260510081358 6 50 0.0 0.0 0.00 0.00 0.00 96 1013.4
20260510080855 6 50 0.0 0.0 0.00 0.00 0.00 96 1013.2
20260510080348 6 50 0.0 0.0 0.00 0.00 0.00 96 1013.4
20260510075846 6 50 0.0 0.0 0.00 0.00 0.00 96 1013.3
20260510075343 6 50 0.0 0.0 0.00 0.00 0.00 96 1013.1
20260510074839 6 50 0.0 0.0 0.00 0.00 0.00 96 1013.3
20260510074337 6 50 0.0 0.0 0.00 0.00 0.00 96 1013.2
20260510073833 6 50 0.0 0.0 0.00 0.00 0.00 96 1013.1
20260510073329 6 50 0.0 0.0 0.00 0.00 0.00 96 1013.1
20260510072825 6 50 0.0 0.0 0.00 0.00 0.00 96 1013.2
20260510072323 6 50 0.0 0.0 0.00 0.00 0.00 96 1013.0
20260510071819 6 50 0.0 0.0 0.00 0.00 0.00 96 1013.2
20260510071315 6 50 0.0 0.0 0.00 0.00 0.00 96 1013.0
20260510070814 6 50 0.0 0.0 0.00 0.00 0.00 96 1013.0
20260510070310 6 50 0.0 0.0 0.00 0.00 0.00 96 1013.0
20260510065810 6 50 0.0 0.0 0.00 0.00 0.00 96 1012.9
20260510065307 6 50 0.0 0.0 0.00 0.00 0.00 96 1013.1
20260510064804 7 50 0.0 0.0 0.00 0.00 0.00 96 1013.0
20260510064303 7 50 0.0 0.0 0.00 0.00 0.00 96 1012.9
20260510063803 7 50 0.0 0.0 0.00 0.00 0.00 96 1013.0
20260510063259 7 50 0.0 0.0 0.00 0.00 0.00 96 1013.0
20260510062756 7 50 0.0 0.0 0.00 0.00 0.00 95 1012.8
20260510062252 7 50 0.0 0.0 0.00 0.00 0.00 95 1012.8
20260510061747 7 50 0.0 0.0 0.00 0.00 0.00 95 1013.2
20260510061245 7 50 0.0 0.0 0.00 0.00 0.00 95 1013.0
20260510060741 7 50 0.0 0.0 0.00 0.00 0.00 95 1013.2
20260510060238 7 50 0.0 0.0 0.00 0.00 0.00 95 1013.0
20260510055734 7 50 0.0 0.0 0.00 0.00 0.00 95 1013.2
20260510055233 7 50 0.0 0.0 0.00 0.00 0.00 95 1013.1
20260510054732 7 50 0.0 0.0 0.00 0.00 0.00 95 1013.3
20260510054229 7 50 0.0 0.0 0.00 0.00 0.00 95 1013.2
20260510053728 7 50 0.0 0.0 0.00 0.00 0.00 94 1012.9
20260510053225 7 50 0.0 0.0 0.00 0.00 0.00 94 1013.1
20260510052720 7 50 0.0 0.0 0.00 0.00 0.00 94 1013.1
20260510052217 7 50 0.0 0.0 0.00 0.00 0.00 94 1013.3
20260510051712 7 50 0.0 0.0 0.00 0.00 0.00 94 1013.2
20260510051209 7 50 0.0 0.0 0.00 0.00 0.00 94 1013.1
20260510050707 7 50 0.0 0.0 0.00 0.00 0.00 94 1013.1
20260510050204 7 50 0.0 0.0 0.00 0.00 0.00 94 1013.2
20260510045700 7 50 0.0 0.0 0.00 0.00 0.00 94 1013.2
20260510045157 7 50 0.0 0.0 0.00 0.00 0.00 93 1013.1
20260510044653 8 50 0.0 0.0 0.00 0.00 0.00 93 1013.2
20260510044151 8 50 0.0 0.0 0.00 0.00 0.00 93 1013.1
20260510043646 8 50 0.0 0.0 0.00 0.00 0.00 92 1013.4
20260510043143 8 49 0.0 0.0 0.00 0.00 0.00 92 1013.4
20260510042641 8 49 0.0 0.0 0.00 0.00 0.00 92 1013.5
20260510042136 8 36 0.0 0.0 0.00 0.00 0.00 92 1013.2
20260510041634 8 36 0.0 0.0 0.00 0.00 0.00 92 1013.4
20260510041131 8 44 0.0 0.0 0.00 0.00 0.00 91 1013.3
20260510040628 8 60 0.0 0.0 0.00 0.00 0.00 91 1013.2
20260510040124 9 60 0.0 0.0 0.00 0.00 0.00 91 1013.2
20260510035620 9 53 0.0 0.0 0.00 0.00 0.00 91 1013.0
20260510035115 9 50 0.0 0.0 0.00 0.00 0.00 90 1012.9
20260510034613 9 50 0.0 0.0 0.00 0.00 0.00 90 1013.0
20260510034110 9 51 0.0 0.0 0.00 0.00 0.00 89 1013.1
20260510033606 10 51 0.0 0.0 0.00 0.00 0.00 88 1013.0
20260510033104 10 51 0.0 0.0 0.00 0.00 0.00 88 1012.9
20260510032600 10 51 0.0 0.0 0.00 0.00 0.00 88 1013.0
20260510032055 10 51 0.0 0.0 0.00 0.00 0.00 87 1013.0
20260510031550 10 51 0.0 0.0 0.00 0.00 0.00 88 1013.1
20260510031047 10 46 0.0 0.0 0.00 0.00 0.00 87 1013.0
20260510030542 10 45 0.0 0.0 0.00 0.00 0.00 87 1013.0
20260510030040 10 56 0.0 0.0 0.00 0.00 0.00 86 1013.0
20260510025536 10 52 0.0 0.0 0.00 0.00 0.00 86 1012.6
20260510025034 10 52 0.0 0.0 0.00 0.00 0.00 85 1012.8
20260510024531 11 60 0.0 0.0 0.00 0.00 0.00 84 1012.8
20260510024026 11 59 0.0 0.0 0.00 0.00 0.00 83 1012.8
20260510023523 11 60 0.0 0.0 0.00 0.00 0.00 82 1012.9
20260510023020 11 60 0.0 0.0 0.00 0.00 0.00 82 1012.6
20260510022519 11 60 0.0 0.0 0.00 0.00 0.00 82 1012.6
20260510022014 11 60 0.0 0.0 0.00 0.00 0.00 83 1012.4
20260510021511 11 57 0.0 0.0 0.00 0.00 0.00 82 1012.4
20260510021008 11 55 0.0 0.0 0.00 0.00 0.00 82 1012.4
20260510020502 11 53 0.0 0.0 0.00 0.00 0.00 81 1012.4
20260510015958 11 53 0.0 0.0 0.00 0.00 0.00 80 1012.3
20260510015454 12 53 0.0 0.0 0.00 0.00 0.00 79 1012.4
20260510014949 12 53 0.0 0.0 0.00 0.00 0.00 78 1012.3
20260510014448 12 53 0.0 0.0 0.00 0.00 0.00 76 1012.2
20260510013944 13 51 0.0 0.0 0.00 0.00 0.00 73 1012.0
20260510013438 13 51 0.0 0.0 0.00 0.00 0.00 70 1011.9
20260510012934 14 40 0.0 0.0 0.00 0.00 0.00 67 1011.7
20260510012429 14 325 3.2 3.2 0.00 0.00 0.00 67 1011.7
20260510011924 15 44 0.0 0.0 0.00 0.00 0.00 67 1011.6
20260510011419 15 14 0.0 0.0 0.00 0.00 0.00 65 1011.4
20260510010916 15 47 0.0 0.0 0.00 0.00 0.00 66 1011.3
20260510010413 15 49 0.0 0.0 0.00 0.00 0.00 66 1011.5
20260510005910 15 20 0.0 0.0 0.00 0.00 0.00 64 1011.5
20260510005406 15 45 1.6 1.6 0.00 0.00 0.00 63 1011.3
20260510004904 15 32 0.0 0.0 0.00 0.00 0.00 63 1011.2
20260510004401 15 37 0.0 0.0 0.00 0.00 0.00 63 1011.0
20260510003859 15 63 0.0 0.0 0.00 0.00 0.00 63 1011.0
20260510003355 15 39 0.0 0.0 0.00 0.00 0.00 62 1011.0
20260510002854 15 73 3.2 1.6 0.00 0.00 0.00 62 1010.8
20260510002352 15 77 0.0 0.0 0.00 0.00 0.00 62 1011.0
20260510001848 16 19 1.6 3.2 0.00 0.00 0.00 62 1011.0
20260510001346 16 44 0.0 0.0 0.00 0.00 0.00 62 1010.7
20260510000842 16 5 0.0 0.0 0.00 0.00 0.00 60 1010.8
20260510000341 16 5 0.0 0.0 0.00 0.00 0.00 60 1010.7
20260509235836 16 39 0.0 0.0 0.00 0.00 0.00 60 1010.5
20260509235333 16 35 0.0 0.0 0.00 0.00 0.00 60 1010.5
20260509234829 16 40 3.2 3.2 0.00 0.00 0.00 58 1010.5
20260509234326 16 30 0.0 0.0 0.00 0.00 0.00 60 1010.4
20260509233824 17 3 1.6 1.6 0.00 0.00 0.00 59 1010.5
20260509233321 17 333 0.0 0.0 0.00 0.00 0.00 58 1010.5
20260509232817 17 329 4.8 6.4 0.00 0.00 0.00 56 1010.6
20260509232314 17 18 0.0 0.0 0.00 0.00 0.00 56 1010.5
20260509231811 17 34 0.0 0.0 0.00 0.00 0.00 57 1010.5
20260509231308 17 346 0.0 0.0 0.00 0.00 0.00 57 1010.6
20260509230806 17 8 0.0 0.0 0.00 0.00 0.00 55 1010.6
20260509230303 17 34 0.0 0.0 0.00 0.00 0.00 57 1010.4
20260509225803 17 5 0.0 0.0 0.00 0.00 0.00 56 1010.3
20260509225300 18 243 6.4 6.4 0.00 0.00 0.00 53 1010.3
20260509224755 18 122 6.4 6.4 0.00 0.00 0.00 52 1010.4
20260509224253 18 345 1.6 1.6 0.00 0.00 0.00 53 1010.5
20260509223749 18 259 8.0 6.4 0.00 0.00 0.00 52 1010.4
20260509223246 18 3 0.0 0.0 0.00 0.00 0.00 54 1010.7
20260509222743 18 101 3.2 3.2 0.00 0.00 0.00 52 1010.8
20260509222239 18 353 0.0 1.6 0.00 0.00 0.00 52 1011.0
20260509221734 18 135 0.0 0.0 0.00 0.00 0.00 49 1010.8
20260509221231 19 358 3.2 3.2 0.00 0.00 0.00 48 1010.6
20260509220727 18 274 6.4 9.7 0.00 0.00 0.00 49 1010.6
20260509220223 18 10 0.0 0.0 0.00 0.00 0.00 52 1010.7
20260509215719 19 349 1.6 3.2 0.00 0.00 0.00 49 1010.8
20260509215216 18 10 0.0 0.0 0.00 0.00 0.00 54 1010.8
20260509214713 18 352 0.0 0.0 0.00 0.00 0.00 50 1010.6
20260509214210 18 352 0.0 1.6 0.00 0.00 0.00 51 1010.6
20260509213707 18 74 1.6 3.2 0.00 0.00 0.00 47 1010.7
20260509213202 19 24 0.0 0.0 0.00 0.00 0.00 47 1010.8
20260509212700 19 6 1.6 1.6 0.00 0.00 0.00 47 1010.6
20260509212157 19 294 3.2 4.8 0.00 0.00 0.00 47 1010.6
20260509211652 18 355 0.0 1.6 0.00 0.00 0.00 49 1010.6
20260509211149 18 327 1.6 3.2 0.00 0.00 0.00 49 1010.7
20260509210647 18 267 6.4 6.4 0.00 0.00 0.00 46 1010.4
20260509210144 18 3 1.6 3.2 0.00 0.00 0.00 49 1010.6
20260509205639 18 200 4.8 4.8 0.00 0.00 0.00 47 1010.7
20260509205138 18 341 1.6 1.6 0.00 0.00 0.00 47 1010.4
20260509204635 18 9 1.6 1.6 0.00 0.00 0.00 49 1010.5
20260509204131 18 27 0.0 0.0 0.00 0.00 0.00 46 1010.5
20260509203627 18 8 0.0 0.0 0.00 0.00 0.00 47 1010.5
20260509203126 19 11 0.0 0.0 0.00 0.00 0.00 43 1010.2
20260509202626 20 335 3.2 3.2 0.00 0.00 0.00 43 1010.2
20260509202121 20 355 1.6 3.2 0.00 0.00 0.00 40 1010.1
20260509201616 19 26 3.2 3.2 0.00 0.00 0.00 41 1010.0
20260509201114 19 10 0.0 0.0 0.00 0.00 0.00 42 1010.2
20260509200615 19 277 4.8 4.8 0.00 0.00 0.00 41 1010.1
20260509200111 20 233 1.6 1.6 0.00 0.00 0.00 41 1010.1
20260509195607 20 14 0.0 0.0 0.00 0.00 0.00 41 1010.1
20260509195101 20 353 3.2 3.2 0.00 0.00 0.00 44 1010.1
20260509194601 20 273 6.4 6.4 0.00 0.00 0.00 38 1010.0
20260509194059 20 11 3.2 4.8 0.00 0.00 0.00 39 1010.1
20260509193554 20 359 1.6 3.2 0.00 0.00 0.00 44 1010.1
20260509193050 19 323 4.8 6.4 0.00 0.00 0.00 42 1010.1
20260509192547 19 291 6.4 6.4 0.00 0.00 0.00 42 1010.1
20260509192043 18 234 6.4 6.4 0.00 0.00 0.00 38 1010.2
20260509191542 18 332 3.2 4.8 0.00 0.00 0.00 40 1010.3
20260509191038 18 223 8.0 12.9 0.00 0.00 0.00 38 1010.0
20260509190535 19 300 3.2 4.8 0.00 0.00 0.00 37 1010.1
20260509190034 20 251 6.4 11.3 0.00 0.00 0.00 37 1010.3
20260509185531 20 347 0.0 0.0 0.00 0.00 0.00 35 1010.0
20260509185027 20 253 4.8 6.4 0.00 0.00 0.00 37 1010.0
20260509184525 18 356 3.2 3.2 0.00 0.00 0.00 40 1009.9
20260509184021 18 256 4.8 6.4 0.00 0.00 0.00 34 1010.0
20260509183516 18 226 3.2 6.4 0.00 0.00 0.00 43 1010.2
20260509183013 19 333 4.8 4.8 0.00 0.00 0.00 52 1010.2
20260509182509 18 5 0.0 0.0 0.00 0.00 0.00 53 1010.3
20260509182006 19 237 8.0 9.7 0.00 0.00 0.00 52 1010.2
20260509181504 18 354 0.0 0.0 0.00 0.00 0.00 55 1010.3
20260509181001 18 294 0.0 0.0 0.00 0.00 0.00 54 1010.2
20260509180456 18 325 0.0 0.0 0.00 0.00 0.00 54 1010.1
20260509175954 18 216 0.0 3.2 0.00 0.00 0.00 53 1010.1
20260509175450 18 353 0.0 0.0 0.00 0.00 0.00 53 1010.1
20260509174947 18 356 0.0 0.0 0.00 0.00 0.00 55 1010.2
20260509174443 18 8 1.6 1.6 0.00 0.00 0.00 54 1010.2
20260509173939 18 11 0.0 1.6 0.00 0.00 0.00 55 1010.3
20260509173438 18 347 3.2 3.2 0.00 0.00 0.00 56 1010.3
20260509172935 18 339 0.0 0.0 0.00 0.00 0.00 54 1010.3
20260509172433 18 12 0.0 0.0 0.00 0.00 0.00 56 1010.2
20260509171928 18 7 0.0 0.0 0.00 0.00 0.00 53 1010.4
20260509171424 18 2 1.6 3.2 0.00 0.00 0.00 58 1010.2
20260509170921 18 340 1.6 1.6 0.00 0.00 0.00 53 1010.3
20260509170416 18 347 0.0 0.0 0.00 0.00 0.00 56 1010.6
20260509165913 18 1 0.0 0.0 0.00 0.00 0.00 55 1010.5
20260509165406 18 9 0.0 0.0 0.00 0.00 0.00 59 1010.6
20260509164902 18 356 1.6 1.6 0.00 0.00 0.00 55 1010.6
20260509164358 17 15 0.0 0.0 0.00 0.00 0.00 58 1010.8
20260509163854 17 21 0.0 0.0 0.00 0.00 0.00 56 1010.7
20260509163352 17 356 0.0 0.0 0.00 0.00 0.00 59 1010.7
20260509162851 17 30 0.0 0.0 0.00 0.00 0.00 59 1010.7
20260509162349 17 21 1.6 1.6 0.00 0.00 0.00 55 1010.7
20260509161846 17 28 0.0 0.0 0.00 0.00 0.00 56 1010.7
20260509161342 17 45 1.6 1.6 0.00 0.00 0.00 56 1010.6
20260509160838 17 37 1.6 1.6 0.00 0.00 0.00 57 1010.5
20260509160334 16 11 1.6 1.6 0.00 0.00 0.00 56 1010.5
20260509155829 16 3 0.0 0.0 0.00 0.00 0.00 58 1010.4
20260509155326 16 4 0.0 1.6 0.00 0.00 0.00 56 1010.5
20260509154822 16 15 0.0 0.0 0.00 0.00 0.00 58 1010.5
20260509154319 16 9 1.6 3.2 0.00 0.00 0.00 58 1010.5
20260509153816 16 34 0.0 0.0 0.00 0.00 0.00 58 1010.6
20260509153313 16 12 0.0 0.0 0.00 0.00 0.00 60 1010.7
20260509152809 16 346 0.0 0.0 0.00 0.00 0.00 58 1010.7
20260509152306 16 65 1.6 1.6 0.00 0.00 0.00 59 1010.6
20260509151802 16 12 0.0 0.0 0.00 0.00 0.00 59 1010.7
20260509151258 16 13 0.0 0.0 0.00 0.00 0.00 63 1010.7
20260509150757 16 12 0.0 0.0 0.00 0.00 0.00 61 1011.0
20260509150255 16 20 1.6 1.6 0.00 0.00 0.00 59 1010.8
20260509145752 16 30 1.6 1.6 0.00 0.00 0.00 58 1010.6
20260509145251 16 214 0.0 0.0 0.00 0.00 0.00 60 1010.7
20260509144748 16 218 1.6 6.4 0.00 0.00 0.00 60 1011.0
20260509144245 16 355 3.2 3.2 0.00 0.00 0.00 59 1010.6
20260509143742 15 349 1.6 3.2 0.00 0.00 0.00 60 1011.0
20260509143240 15 359 1.6 1.6 0.00 0.00 0.00 61 1010.7
20260509142736 15 8 1.6 1.6 0.00 0.00 0.00 62 1010.8
20260509142232 15 37 0.0 0.0 0.00 0.00 0.00 61 1010.6
20260509141727 15 18 0.0 0.0 0.00 0.00 0.00 62 1010.7
20260509141225 15 12 0.0 1.6 0.00 0.00 0.00 60 1010.3
20260509140721 15 20 0.0 0.0 0.00 0.00 0.00 60 1010.5
20260509140222 15 308 3.2 4.8 0.00 0.00 0.00 58 1010.6
20260509135716 16 11 1.6 3.2 0.00 0.00 0.00 58 1010.3
20260509135214 16 285 1.6 4.8 0.00 0.00 0.00 56 1010.5
20260509134711 16 23 3.2 4.8 0.00 0.00 0.00 53 1010.6
20260509134208 17 303 3.2 3.2 0.00 0.00 0.00 54 1010.3
20260509133705 16 23 0.0 0.0 0.00 0.00 0.00 55 1010.1
20260509133202 16 71 3.2 3.2 0.00 0.00 0.00 54 1010.3
20260509132700 16 51 1.6 1.6 0.00 0.00 0.00 55 1010.2
20260509132159 16 177 6.4 9.7 0.00 0.00 0.00 55 1010.4
20260509131654 16 86 4.8 4.8 0.00 0.00 0.00 54 1010.3
20260509131151 16 35 0.0 1.6 0.00 0.00 0.00 54 1010.2
20260509130647 15 63 1.6 1.6 0.00 0.00 0.00 56 1010.3
20260509130144 15 123 6.4 6.4 0.00 0.00 0.00 56 1010.4
20260509125640 15 319 4.8 4.8 0.00 0.00 0.00 56 1010.5
20260509125137 15 307 8.0 9.7 0.00 0.00 0.00 56 1010.5
20260509124634 15 58 4.8 6.4 0.00 0.00 0.00 58 1010.7
20260509124131 15 275 0.0 1.6 0.00 0.00 0.00 58 1010.8
20260509123628 14 0 3.2 3.2 0.00 0.00 0.00 58 1010.6
20260509123125 14 257 3.2 3.2 0.00 0.00 0.00 59 1010.5
20260509122621 13 70 1.6 1.6 0.00 0.00 0.00 59 1010.5
20260509122118 13 40 0.0 0.0 0.00 0.00 0.00 64 1010.6
20260509121614 12 196 3.2 4.8 0.00 0.00 0.00 63 1010.8
20260509121113 12 115 6.4 6.4 0.00 0.00 0.00 64 1010.6
20260509120610 12 33 0.0 0.0 0.00 0.00 0.00 66 1010.7